Location: Unspecified
(0.0000°N, 0.0000°E)
Time: 09:15:56
(UTC+02:00)

Delta 168 - Visible Passes

Search period start: 26 September 2017 00:00
Search period end: 06 October 2017 00:00
Orbit: 394 x 2063 km, 25.3° (Epoch: 25 September)

Date Brightness Start Highest point End Pass type
(mag) Time Alt. Az. Time Alt. Az. Time Alt. Az.
26 Sep 6.7 21:13:45 10° NW 21:20:10 16° N 21:25:47 10° NNE visible
26 Sep 7.0 23:14:48 10° NNW 23:15:56 12° NNW 23:15:56 12° NNW visible
27 Sep 6.7 21:02:08 10° NW 21:09:07 17° N 21:15:16 10° NE visible
27 Sep 6.8 23:02:48 10° NW 23:05:31 16° NNW 23:05:31 16° NNW visible
28 Sep 6.7 20:50:31 10° NW 20:58:03 18° N 21:04:43 10° NE visible
28 Sep 6.7 22:50:52 10° NW 22:55:05 19° NNW 22:55:05 19° NNW visible
29 Sep 6.7 20:38:54 10° NW 20:46:57 19° N 20:54:07 10° NE visible
29 Sep 6.5 22:38:57 10° NW 22:44:41 24° NNW 22:44:41 24° NNW visible
30 Sep 6.7 20:27:18 10° NW 20:35:50 20° N 20:43:29 10° NE visible
30 Sep 6.3 22:27:04 10° NW 22:34:18 28° N 22:34:18 28° N visible
01 Oct 6.7 20:15:43 10° NW 20:24:39 22° N 20:32:48 10° NE visible
01 Oct 6.0 22:15:12 10° NW 22:23:57 33° N 22:23:57 33° N visible
02 Oct 6.7 20:04:09 10° NW 20:13:28 23° N 20:22:04 10° ENE visible
02 Oct 5.8 22:03:23 10° NW 22:13:40 38° N 22:13:40 38° N visible
03 Oct 7.3 00:03:00 10° WNW 00:03:38 12° WNW 00:03:38 12° WNW visible
03 Oct 6.7 19:52:37 10° NW 20:02:13 25° NNE 20:11:17 10° ENE visible
03 Oct 5.7 21:51:35 10° NW 22:03:12 43° NNE 22:03:25 43° NNE visible
03 Oct 7.1 23:51:18 10° WNW 23:53:24 17° WNW 23:53:24 17° WNW visible
04 Oct 5.5 21:39:49 10° NW 21:51:51 47° NNE 21:53:14 45° NE visible
04 Oct 6.8 23:39:36 10° WNW 23:43:14 22° WNW 23:43:14 22° WNW visible
05 Oct 5.5 21:28:06 10° NW 21:40:27 52° NNE 21:43:07 45° ENE visible
05 Oct 6.6 23:27:56 10° WNW 23:33:08 29° WNW 23:33:08 29° WNW visible
